QPF
0.07 0.07 0.07 0.06 0.05 0.05 0.06 0.08 0.07 0.08 0.09 0.10 0.09 0.09 0.07 0.05 0.03 0.03 0.02 0.03 0.05 0.06 0.09 0.11 0.11 0.10 0.10 0.10 0.11 0.10 0.09 0.08 0.08 0.07 0.07 0.07 0.08 0.08 0.07 0.04 0.03 0.04 0.04
0.08 0.08 0.07 0.06 0.05 0.06 0.07 0.08 0.07 0.08 0.07 0.07 0.07 0.08 0.07 0.06 0.05 0.04 0.03 0.02 0.04 0.05 0.07 0.10 0.12 0.14 0.15 0.13 0.12 0.12 0.11 0.09 0.08 0.07 0.08 0.06 0.06 0.08 0.09 0.08 0.07 0.06 0.05
0.09 0.08 0.06 0.04 0.05 0.07 0.08 0.09 0.07 0.07 0.07 0.07 0.06 0.07 0.07 0.06 0.05 0.04 0.03 0.03 0.03 0.04 0.06 0.09 0.12 0.14 0.14 0.14 0.13 0.12 0.13 0.11 0.09 0.08 0.08 0.08 0.08 0.07 0.08 0.08 0.07 0.07 0.06
0.11 0.08 0.05 0.04 0.05 0.07 0.09 0.09 0.08 0.07 0.07 0.07 0.08 0.08 0.06 0.07 0.06 0.05 0.03 0.03 0.03 0.04 0.05 0.06 0.09 0.12 0.14 0.13 0.13 0.13 0.13 0.13 0.12 0.10 0.10 0.10 0.10 0.09 0.07 0.06 0.06 0.06 0.06
0.10 0.07 0.05 0.05 0.05 0.06 0.07 0.09 0.09 0.08 0.07 0.05 0.05 0.05 0.05 0.05 0.05 0.05 0.05 0.03 0.03 0.03 0.03 0.03 0.06 0.08 0.10 0.12 0.14 0.14 0.13 0.14 0.14 0.13 0.13 0.12 0.11 0.11 0.09 0.07 0.05 0.05 0.05
0.09 0.07 0.06 0.06 0.07 0.06 0.07 0.08 0.07 0.07 0.06 0.06 0.05 0.04 0.04 0.04 0.04 0.04 0.04 0.04 0.05 0.04 0.04 0.04 0.04 0.06 0.08 0.10 0.11 0.13 0.14 0.15 0.15 0.15 0.14 0.13 0.12 0.12 0.10 0.09 0.07 0.05 0.04
0.07 0.06 0.05 0.05 0.05 0.04 0.04 0.05 0.05 0.06 0.06 0.06 0.05 0.04 0.03 0.03 0.04 0.05 0.05 0.06 0.06 0.05 0.04 0.05 0.06 0.06 0.06 0.08 0.08 0.09 0.11 0.13 0.16 0.18 0.18 0.16 0.14 0.11 0.10 0.09 0.10 0.08 0.06
0.06 0.05 0.05 0.05 0.06 0.06 0.07 0.06 0.06 0.05 0.05 0.05 0.05 0.04 0.03 0.02 0.02 0.03 0.05 0.05 0.05 0.05 0.04 0.04 0.04 0.05 0.05 0.05 0.06 0.08 0.09 0.09 0.12 0.15 0.19 0.18 0.16 0.12 0.10 0.09 0.08 0.09 0.09
0.06 0.07 0.05 0.06 0.07 0.08 0.07 0.08 0.08 0.06 0.05 0.05 0.06 0.05 0.03 0.01 0.01 0.01 0.02 0.03 0.04 0.04 0.04 0.04 0.04 0.03 0.03 0.03 0.04 0.06 0.09 0.09 0.11 0.13 0.14 0.16 0.17 0.15 0.12 0.10 0.10 0.09 0.09
0.08 0.08 0.09 0.09 0.09 0.08 0.06 0.07 0.09 0.08 0.07 0.05 0.05 0.04 0.03 0.03 0.03 0.02 0.01 0.02 0.03 0.03 0.04 0.04 0.04 0.03 0.03 0.03 0.03 0.04 0.06 0.07 0.07 0.08 0.10 0.12 0.15 0.16 0.14 0.12 0.11 0.11 0.11
0.07 0.10 0.12 0.12 0.11 0.09 0.07 0.09 0.10 0.09 0.08 0.06 0.04 0.04 0.03 0.04 0.04 0.04 0.03 0.02 0.02 0.02 0.03 0.03 0.03 0.03 0.04 0.04 0.03 0.03 0.04 0.05 0.05 0.05 0.06 0.07 0.09 0.11 0.12 0.11 0.11 0.10 0.10
0.06 0.10 0.13 0.12 0.10 0.10 0.10 0.10 0.10 0.07 0.06 0.07 0.06 0.05 0.05 0.05 0.06 0.06 0.05 0.02 0.02 0.03 0.03 0.03 0.03 0.03 0.03 0.04 0.03 0.03 0.03 0.03 0.03 0.04 0.04 0.05 0.06 0.08 0.10 0.10 0.10 0.10 0.10
0.05 0.08 0.11 0.10 0.09 0.07 0.08 0.09 0.09 0.08 0.06 0.05 0.04 0.04 0.04 0.04 0.04 0.04 0.04 0.02 0.02 0.02 0.03 0.04 0.04 0.04 0.03 0.03 0.03 0.03 0.03 0.02 0.03 0.03 0.02 0.03 0.03 0.05 0.06 0.08 0.09 0.09 0.09
0.06 0.08 0.08 0.07 0.07 0.08 0.08 0.05 0.05 0.05 0.04 0.04 0.04 0.04 0.04 0.05 0.05 0.05 0.04 0.04 0.03 0.03 0.03 0.04 0.05 0.06 0.05 0.04 0.04 0.04 0.02 0.02 0.02 0.03 0.03 0.02 0.02 0.03 0.05 0.05 0.05 0.05 0.08
0.05 0.06 0.07 0.05 0.05 0.06 0.05 0.04 0.03 0.03 0.04 0.04 0.04 0.05 0.05 0.05 0.06 0.06 0.05 0.04 0.04 0.04 0.05 0.05 0.06 0.08 0.09 0.09 0.07 0.04 0.03 0.03 0.02 0.02 0.02 0.02 0.02 0.02 0.03 0.04 0.04 0.03 0.04
0.04 0.04 0.05 0.04 0.03 0.03 0.03 0.02 0.02 0.03 0.03 0.04 0.05 0.06 0.09 0.09 0.08 0.08 0.08 0.07 0.06 0.06 0.07 0.08 0.08 0.07 0.09 0.11 0.11 0.07 0.05 0.05 0.03 0.03 0.03 0.02 0.02 0.02 0.02 0.02 0.02 0.04 0.04
0.03 0.03 0.03 0.02 0.02 0.02 0.02 0.02 0.02 0.03 0.03 0.04 0.07 0.09 0.10 0.09 0.09 0.10 0.10 0.09 0.07 0.06 0.05 0.05 0.05 0.05 0.05 0.06 0.07 0.07 0.06 0.04 0.03 0.03 0.03 0.03 0.03 0.03 0.03 0.03 0.02 0.02 0.04
0.03 0.03 0.01 0.01 0.02 0.02 0.02 0.02 0.01 0.01 0.02 0.03 0.05 0.07 0.07 0.07 0.07 0.07 0.09 0.10 0.08 0.06 0.05 0.04 0.03 0.04 0.05 0.05 0.04 0.04 0.05 0.05 0.04 0.03 0.03 0.04 0.04 0.04 0.04 0.04 0.04 0.03 0.03
0.03 0.02 0.01 0.02 0.03 0.02 0.02 0.02 0.01 0.02 0.01 0.02 0.02 0.03 0.03 0.04 0.05 0.05 0.06 0.08 0.08 0.07 0.05 0.05 0.05 0.04 0.05 0.06 0.06 0.05 0.04 0.05 0.04 0.03 0.03 0.03 0.04 0.04 0.04 0.04 0.04 0.04 0.04
0.03 0.02 0.01 0.02 0.04 0.02 0.01 0.02 0.02 0.03 0.03 0.02 0.02 0.02 0.02 0.03 0.03 0.04 0.04 0.05 0.06 0.07 0.07 0.07 0.06 0.05 0.06 0.06 0.06 0.06 0.06 0.06 0.05 0.04 0.04 0.03 0.03 0.03 0.03 0.04 0.04 0.04 0.05
0.04 0.02 0.02 0.04 0.05 0.03 0.03 0.03 0.03 0.03 0.03 0.02 0.02 0.02 0.01 0.01 0.01 0.02 0.03 0.04 0.04 0.05 0.06 0.07 0.07 0.06 0.06 0.06 0.06 0.06 0.06 0.06 0.06 0.05 0.05 0.04 0.03 0.03 0.03 0.04 0.06 0.06 0.05
0.03 0.02 0.03 0.02 0.02 0.03 0.04 0.04 0.03 0.02 0.02 0.02 0.02 0.01 0.01 0.01 0.01 0.02 0.02 0.02 0.03 0.03 0.05 0.06 0.07 0.06 0.06 0.07 0.08 0.07 0.07 0.07 0.07 0.05 0.04 0.05 0.05 0.05 0.04 0.03 0.05 0.06 0.07
0.03 0.03 0.03 0.03 0.02 0.01 0.01 0.01 0.01 0.01 0.01 0.01 0.02 0.03 0.02 0.01 0.01 0.02 0.03 0.03 0.03 0.04 0.05 0.06 0.07 0.07 0.07 0.08 0.08 0.07 0.07 0.08 0.09 0.08 0.06 0.05 0.05 0.05 0.06 0.06 0.06 0.06 0.06
0.04 0.04 0.03 0.03 0.02 0.02 0.02 0.02 0.02 0.01 0.01 0.01 0.02 0.03 0.03 0.02 0.01 0.01 0.02 0.02 0.03 0.05 0.05 0.05 0.05 0.05 0.05 0.05 0.06 0.05 0.05 0.06 0.06 0.06 0.05 0.05 0.04 0.03 0.04 0.04 0.05 0.05 0.05
0.05 0.05 0.03 0.03 0.02 0.02 0.03 0.03 0.03 0.03 0.01 0.01 0.02 0.01 0.01 0.01 0.01 0.01 0.02 0.03 0.04 0.04 0.04 0.05 0.05 0.05 0.06 0.06 0.06 0.05 0.05 0.05 0.05 0.05 0.05 0.04 0.04 0.04 0.03 0.03 0.03 0.05 0.04
0.05 0.04 0.03 0.02 0.02 0.01 0.02 0.02 0.02 0.02 0.01 0.01 0.01 0.01 0.01 0.01 0.01 0.01 0.01 0.02 0.04 0.03 0.03 0.04 0.04 0.04 0.04 0.05 0.04 0.03 0.03 0.03 0.04 0.04 0.04 0.04 0.03 0.03 0.03 0.02 0.02 0.02 0.03
MSLP
1008.67 1009.05 1009.39 1009.68 1009.95 1010.24 1010.55 1010.88 1011.22 1011.56 1011.88 1012.16 1012.38 1012.56 1012.70 1012.81 1012.90 1012.99 1013.09 1013.20 1013.32 1013.45 1013.61 1013.80 1014.02 1014.27 1014.56 1014.86 1015.16 1015.45 1015.71 1015.93 1016.13 1016.32 1016.52 1016.76 1017.03 1017.34 1017.67 1018.01 1018.31 1018.56 1018.75
1008.44 1008.86 1009.22 1009.55 1009.86 1010.16 1010.47 1010.79 1011.12 1011.44 1011.74 1012.00 1012.21 1012.38 1012.51 1012.61 1012.68 1012.74 1012.80 1012.87 1012.96 1013.06 1013.20 1013.37 1013.58 1013.83 1014.11 1014.41 1014.70 1014.97 1015.22 1015.44 1015.63 1015.83 1016.03 1016.27 1016.55 1016.87 1017.21 1017.54 1017.85 1018.11 1018.31
1008.04 1008.51 1008.94 1009.33 1009.70 1010.05 1010.39 1010.72 1011.05 1011.35 1011.63 1011.87 1012.06 1012.21 1012.32 1012.39 1012.44 1012.47 1012.50 1012.53 1012.57 1012.64 1012.74 1012.88 1013.07 1013.31 1013.57 1013.86 1014.14 1014.41 1014.66 1014.88 1015.08 1015.27 1015.49 1015.72 1016.00 1016.31 1016.63 1016.95 1017.26 1017.52 1017.73
1007.48 1008.00 1008.50 1008.98 1009.43 1009.85 1010.25 1010.61 1010.94 1011.24 1011.49 1011.71 1011.88 1012.01 1012.10 1012.16 1012.18 1012.19 1012.18 1012.17 1012.16 1012.19 1012.25 1012.35 1012.51 1012.71 1012.96 1013.23 1013.51 1013.79 1014.04 1014.27 1014.49 1014.69 1014.90 1015.13 1015.39 1015.67 1015.97 1016.26 1016.55 1016.81 1017.03
1006.78 1007.33 1007.90 1008.47 1009.01 1009.51 1009.97 1010.38 1010.74 1011.04 1011.28 1011.48 1011.64 1011.75 1011.83 1011.88 1011.90 1011.89 1011.85 1011.81 1011.77 1011.75 1011.76 1011.82 1011.93 1012.10 1012.32 1012.58 1012.86 1013.14 1013.42 1013.67 1013.90 1014.12 1014.33 1014.55 1014.77 1015.01 1015.26 1015.52 1015.77 1016.01 1016.24
1005.99 1006.55 1007.16 1007.79 1008.42 1009.00 1009.53 1010.00 1010.38 1010.70 1010.95 1011.15 1011.30 1011.42 1011.51 1011.57 1011.60 1011.59 1011.56 1011.50 1011.43 1011.37 1011.34 1011.35 1011.41 1011.54 1011.73 1011.97 1012.25 1012.55 1012.84 1013.13 1013.39 1013.62 1013.83 1014.02 1014.21 1014.39 1014.58 1014.77 1014.97 1015.17 1015.39
1005.17 1005.69 1006.31 1006.98 1007.67 1008.32 1008.92 1009.43 1009.86 1010.21 1010.48 1010.69 1010.87 1011.01 1011.13 1011.22 1011.29 1011.31 1011.30 1011.25 1011.17 1011.09 1011.02 1010.99 1011.01 1011.10 1011.26 1011.48 1011.76 1012.07 1012.39 1012.70 1012.98 1013.23 1013.43 1013.60 1013.74 1013.86 1013.97 1014.08 1014.20 1014.35 1014.53
1004.36 1004.81 1005.40 1006.08 1006.80 1007.50 1008.15 1008.71 1009.19 1009.57 1009.88 1010.13 1010.34 1010.53 1010.70 1010.85 1010.97 1011.05 1011.08 1011.06 1011.00 1010.92 1010.84 1010.78 1010.77 1010.83 1010.96 1011.17 1011.44 1011.75 1012.09 1012.42 1012.71 1012.97 1013.16 1013.30 1013.38 1013.43 1013.45 1013.47 1013.50 1013.57 1013.69
1003.60 1003.96 1004.49 1005.15 1005.87 1006.60 1007.28 1007.89 1008.40 1008.83 1009.18 1009.48 1009.75 1010.00 1010.23 1010.45 1010.64 1010.78 1010.88 1010.92 1010.90 1010.85 1010.78 1010.72 1010.70 1010.74 1010.85 1011.04 1011.30 1011.61 1011.95 1012.28 1012.58 1012.82 1013.00 1013.09 1013.12 1013.08 1013.01 1012.93 1012.86 1012.84 1012.87
1002.88 1003.15 1003.62 1004.24 1004.94 1005.67 1006.38 1007.02 1007.58 1008.05 1008.44 1008.79 1009.11 1009.41 1009.71 1010.00 1010.26 1010.48 1010.66 1010.77 1010.82 1010.82 1010.79 1010.76 1010.75 1010.79 1010.90 1011.08 1011.32 1011.61 1011.93 1012.24 1012.52 1012.74 1012.88 1012.93 1012.89 1012.78 1012.61 1012.43 1012.25 1012.12 1012.06
1002.19 1002.38 1002.80 1003.38 1004.06 1004.79 1005.51 1006.17 1006.76 1007.27 1007.71 1008.10 1008.46 1008.80 1009.15 1009.49 1009.82 1010.11 1010.36 1010.55 1010.69 1010.77 1010.81 1010.84 1010.87 1010.94 1011.05 1011.21 1011.43 1011.68 1011.96 1012.23 1012.47 1012.64 1012.73 1012.73 1012.63 1012.44 1012.19 1011.91 1011.64 1011.41 1011.25
1001.49 1001.65 1002.03 1002.59 1003.26 1003.99 1004.72 1005.41 1006.02 1006.55 1007.02 1007.43 1007.81 1008.18 1008.56 1008.93 1009.30 1009.65 1009.96 1010.24 1010.46 1010.64 1010.78 1010.89 1010.98 1011.09 1011.22 1011.37 1011.56 1011.77 1011.98 1012.19 1012.36 1012.46 1012.49 1012.43 1012.27 1012.03 1011.71 1011.36 1011.01 1010.69 1010.43
1000.77 1000.94 1001.32 1001.88 1002.56 1003.30 1004.05 1004.75 1005.38 1005.94 1006.41 1006.83 1007.22 1007.58 1007.95 1008.33 1008.71 1009.10 1009.47 1009.82 1010.13 1010.41 1010.65 1010.86 1011.04 1011.20 1011.35 1011.50 1011.65 1011.80 1011.94 1012.06 1012.14 1012.17 1012.13 1012.01 1011.80 1011.51 1011.15 1010.75 1010.34 1009.95 1009.63
1000.01 1000.23 1000.66 1001.26 1001.97 1002.74 1003.51 1004.23 1004.88 1005.45 1005.93 1006.34 1006.71 1007.05 1007.40 1007.75 1008.13 1008.52 1008.92 1009.33 1009.73 1010.10 1010.45 1010.75 1011.02 1011.24 1011.42 1011.56 1011.67 1011.75 1011.80 1011.83 1011.82 1011.76 1011.65 1011.48 1011.24 1010.92 1010.54 1010.12 1009.68 1009.25 1008.88
999.23 999.54 1000.05 1000.71 1001.48 1002.30 1003.11 1003.86 1004.54 1005.11 1005.59 1005.99 1006.33 1006.64 1006.94 1007.26 1007.61 1007.99 1008.40 1008.85 1009.30 1009.76 1010.20 1010.59 1010.94 1011.21 1011.42 1011.55 1011.62 1011.63 1011.60 1011.53 1011.43 1011.29 1011.12 1010.91 1010.64 1010.32 1009.94 1009.52 1009.08 1008.64 1008.23
998.43 998.87 999.49 1000.25 1001.10 1001.99 1002.85 1003.65 1004.35 1004.94 1005.42 1005.81 1006.13 1006.40 1006.66 1006.94 1007.24 1007.60 1008.01 1008.46 1008.96 1009.47 1009.97 1010.43 1010.83 1011.15 1011.38 1011.50 1011.53 1011.49 1011.38 1011.22 1011.04 1010.83 1010.61 1010.37 1010.09 1009.78 1009.42 1009.02 1008.59 1008.16 1007.74
997.67 998.24 999.00 999.88 1000.83 1001.80 1002.74 1003.59 1004.33 1004.95 1005.45 1005.83 1006.14 1006.39 1006.62 1006.85 1007.12 1007.44 1007.82 1008.27 1008.77 1009.30 1009.83 1010.33 1010.76 1011.10 1011.33 1011.45 1011.45 1011.35 1011.18 1010.96 1010.71 1010.46 1010.20 1009.94 1009.67 1009.37 1009.04 1008.67 1008.27 1007.86 1007.44
996.97 997.69 998.59 999.61 1000.68 1001.74 1002.75 1003.67 1004.46 1005.12 1005.64 1006.05 1006.36 1006.60 1006.81 1007.02 1007.25 1007.54 1007.89 1008.30 1008.78 1009.30 1009.82 1010.32 1010.76 1011.10 1011.32 1011.42 1011.39 1011.26 1011.05 1010.79 1010.51 1010.22 1009.95 1009.68 1009.42 1009.14 1008.84 1008.50 1008.13 1007.73 1007.33
996.38 997.26 998.31 999.46 1000.65 1001.81 1002.90 1003.88 1004.73 1005.43 1005.99 1006.42 1006.75 1007.00 1007.22 1007.41 1007.62 1007.88 1008.19 1008.56 1008.99 1009.46 1009.95 1010.41 1010.82 1011.14 1011.34 1011.42 1011.38 1011.23 1011.01 1010.73 1010.44 1010.14 1009.86 1009.60 1009.35 1009.09 1008.81 1008.49 1008.14 1007.77 1007.38
995.93 996.98 998.18 999.46 1000.77 1002.02 1003.18 1004.22 1005.10 1005.84 1006.44 1006.90 1007.26 1007.54 1007.77 1007.97 1008.17 1008.39 1008.66 1008.98 1009.35 1009.75 1010.17 1010.57 1010.93 1011.21 1011.39 1011.45 1011.40 1011.26 1011.04 1010.77 1010.48 1010.19 1009.92 1009.67 1009.42 1009.17 1008.90 1008.60 1008.27 1007.91 1007.53
995.71 996.90 998.24 999.65 1001.04 1002.37 1003.58 1004.65 1005.57 1006.33 1006.95 1007.44 1007.83 1008.14 1008.39 1008.60 1008.80 1009.00 1009.23 1009.49 1009.78 1010.10 1010.44 1010.77 1011.06 1011.29 1011.44 1011.49 1011.44 1011.31 1011.11 1010.87 1010.60 1010.33 1010.07 1009.83 1009.59 1009.34 1009.07 1008.78 1008.45 1008.10 1007.73
995.76 997.08 998.54 1000.04 1001.51 1002.88 1004.11 1005.18 1006.10 1006.86 1007.48 1007.98 1008.39 1008.72 1008.99 1009.22 1009.41 1009.60 1009.79 1009.99 1010.21 1010.45 1010.71 1010.95 1011.17 1011.35 1011.46 1011.50 1011.47 1011.36 1011.19 1010.98 1010.74 1010.50 1010.26 1010.01 1009.77 1009.52 1009.25 1008.95 1008.62 1008.28 1007.92
996.16 997.59 999.13 1000.69 1002.18 1003.55 1004.76 1005.80 1006.68 1007.40 1008.00 1008.49 1008.90 1009.24 1009.52 1009.75 1009.95 1010.13 1010.28 1010.44 1010.60 1010.76 1010.93 1011.10 1011.26 1011.38 1011.47 1011.50 1011.47 1011.39 1011.25 1011.07 1010.87 1010.65 1010.41 1010.17 1009.93 1009.66 1009.38 1009.08 1008.75 1008.41 1008.07
996.99 998.47 1000.05 1001.60 1003.06 1004.38 1005.53 1006.50 1007.30 1007.96 1008.50 1008.95 1009.34 1009.67 1009.96 1010.20 1010.39 1010.56 1010.69 1010.80 1010.91 1011.01 1011.11 1011.22 1011.32 1011.40 1011.46 1011.48 1011.46 1011.40 1011.29 1011.13 1010.95 1010.74 1010.52 1010.27 1010.02 1009.74 1009.45 1009.14 1008.81 1008.49 1008.17
998.24 999.73 1001.27 1002.77 1004.15 1005.37 1006.40 1007.26 1007.96 1008.53 1008.99 1009.39 1009.74 1010.05 1010.32 1010.56 1010.75 1010.91 1011.02 1011.11 1011.17 1011.23 1011.28 1011.33 1011.39 1011.44 1011.47 1011.48 1011.46 1011.40 1011.30 1011.16 1010.99 1010.78 1010.55 1010.30 1010.03 1009.74 1009.44 1009.13 1008.81 1008.50 1008.20
999.90 1001.32 1002.76 1004.14 1005.38 1006.45 1007.35 1008.07 1008.64 1009.11 1009.49 1009.83 1010.13 1010.41 1010.67 1010.89 1011.08 1011.23 1011.33 1011.40 1011.44 1011.46 1011.48 1011.49 1011.51 1011.53 1011.54 1011.53 1011.50 1011.43 1011.33 1011.18 1011.00 1010.78 1010.54 1010.27 1009.99 1009.69 1009.38 1009.07 1008.76 1008.46 1008.18
Thickness
5713 5711 5709 5706 5704 5703 5701 5700 5698 5697 5696 5695 5694 5694 5694 5694 5693 5694 5694 5695 5696 5697 5698 5699 5700 5700 5699 5699 5699 5699 5699 5698 5697 5696 5695 5694 5694 5693 5693 5693 5693 5693 5693
5709 5707 5705 5703 5701 5699 5697 5695 5694 5693 5692 5691 5691 5690 5690 5690 5690 5690 5691 5692 5694 5694 5695 5696 5697 5697 5697 5697 5697 5697 5696 5696 5695 5694 5693 5693 5692 5692 5691 5691 5691 5691 5691
5705 5703 5701 5699 5697 5695 5693 5691 5690 5689 5688 5687 5687 5687 5687 5687 5686 5687 5688 5689 5690 5691 5692 5693 5694 5694 5694 5694 5694 5694 5694 5693 5693 5692 5691 5691 5690 5690 5690 5689 5689 5688 5688
5700 5698 5695 5693 5692 5690 5688 5687 5685 5684 5683 5682 5682 5683 5683 5683 5683 5684 5684 5685 5686 5687 5688 5689 5690 5691 5691 5691 5691 5691 5691 5691 5691 5690 5690 5689 5688 5688 5687 5687 5687 5687 5687
5695 5692 5690 5687 5685 5684 5683 5682 5681 5679 5678 5678 5678 5678 5679 5679 5680 5681 5681 5682 5682 5682 5683 5684 5685 5686 5687 5687 5687 5687 5687 5687 5688 5688 5687 5686 5686 5685 5685 5685 5685 5685 5685
5689 5686 5684 5682 5680 5678 5677 5676 5674 5674 5673 5673 5673 5674 5674 5675 5676 5677 5677 5677 5678 5678 5678 5679 5680 5681 5682 5682 5682 5683 5683 5684 5684 5684 5684 5684 5683 5683 5682 5682 5682 5683 5682
5683 5681 5679 5677 5675 5673 5671 5671 5669 5667 5667 5667 5665 5666 5668 5669 5671 5672 5672 5673 5673 5674 5674 5674 5675 5675 5676 5677 5678 5678 5679 5679 5680 5681 5681 5681 5680 5680 5679 5679 5679 5680 5680
5678 5677 5674 5672 5670 5667 5666 5665 5663 5661 5660 5660 5658 5656 5656 5659 5664 5667 5667 5667 5668 5668 5669 5670 5670 5670 5671 5672 5673 5673 5674 5675 5676 5677 5677 5677 5677 5677 5677 5676 5677 5677 5677
5673 5671 5669 5666 5664 5662 5660 5659 5658 5656 5654 5654 5653 5651 5649 5650 5654 5658 5660 5661 5662 5662 5663 5664 5665 5665 5666 5666 5667 5668 5669 5670 5671 5672 5672 5673 5673 5674 5674 5674 5674 5674 5675
5667 5666 5664 5661 5659 5657 5655 5654 5652 5651 5649 5648 5647 5646 5646 5646 5644 5648 5652 5654 5655 5656 5658 5659 5659 5660 5661 5661 5662 5663 5664 5665 5666 5667 5668 5669 5670 5670 5670 5671 5671 5672 5672
5661 5660 5658 5656 5654 5652 5651 5649 5647 5646 5644 5643 5642 5641 5640 5640 5640 5639 5642 5646 5648 5651 5653 5654 5654 5655 5656 5656 5657 5658 5660 5660 5661 5663 5664 5664 5665 5666 5667 5667 5667 5668 5668
5654 5654 5653 5651 5649 5648 5646 5644 5643 5641 5640 5639 5637 5636 5635 5634 5634 5635 5635 5638 5640 5644 5646 5648 5649 5649 5650 5651 5652 5654 5654 5655 5656 5657 5658 5659 5660 5661 5662 5662 5663 5664 5664
5648 5648 5647 5646 5645 5643 5642 5640 5638 5636 5636 5634 5633 5633 5632 5631 5631 5630 5630 5631 5632 5636 5638 5641 5643 5644 5645 5646 5647 5648 5650 5650 5651 5652 5652 5653 5654 5655 5656 5657 5658 5659 5660
5644 5644 5643 5642 5640 5639 5637 5635 5633 5632 5631 5631 5630 5630 5628 5628 5627 5627 5626 5625 5625 5628 5630 5633 5636 5637 5638 5640 5642 5643 5644 5645 5646 5646 5647 5647 5648 5649 5650 5651 5652 5654 5655
5640 5641 5639 5637 5635 5634 5632 5630 5628 5627 5627 5626 5626 5626 5624 5625 5624 5623 5622 5621 5619 5621 5625 5627 5629 5631 5632 5633 5634 5636 5638 5639 5640 5641 5641 5642 5642 5643 5644 5645 5646 5648 5649
5637 5636 5635 5633 5631 5629 5627 5625 5624 5623 5622 5622 5621 5621 5620 5620 5619 5619 5618 5617 5617 5616 5618 5622 5623 5624 5625 5626 5627 5629 5631 5633 5634 5635 5636 5636 5637 5637 5638 5639 5640 5642 5643
5632 5631 5630 5628 5626 5624 5623 5621 5620 5619 5618 5616 5616 5616 5615 5614 5614 5613 5613 5613 5612 5612 5612 5615 5616 5617 5618 5619 5620 5622 5624 5626 5627 5628 5629 5630 5630 5631 5631 5632 5633 5635 5636
5628 5627 5626 5624 5622 5621 5619 5617 5616 5615 5613 5612 5611 5611 5610 5610 5608 5608 5608 5608 5607 5607 5607 5608 5609 5610 5610 5612 5613 5614 5616 5618 5619 5621 5622 5623 5624 5624 5625 5626 5627 5628 5630
5625 5624 5622 5620 5619 5617 5615 5613 5611 5610 5608 5607 5606 5605 5605 5604 5603 5603 5604 5603 5602 5602 5601 5600 5601 5601 5602 5603 5604 5606 5608 5609 5611 5613 5614 5615 5616 5618 5619 5620 5620 5622 5623
5621 5620 5618 5616 5615 5613 5611 5609 5607 5605 5603 5602 5601 5601 5600 5599 5599 5599 5599 5598 5597 5595 5594 5593 5593 5593 5594 5595 5596 5597 5599 5600 5602 5604 5606 5607 5609 5611 5612 5613 5615 5616 5616
5618 5616 5614 5612 5610 5609 5607 5605 5603 5601 5599 5598 5597 5596 5596 5596 5596 5594 5593 5592 5590 5589 5588 5587 5586 5586 5587 5588 5589 5590 5591 5592 5594 5595 5597 5599 5602 5604 5605 5606 5607 5608 5610
5613 5611 5609 5608 5606 5605 5603 5601 5599 5596 5594 5593 5592 5592 5592 5591 5591 5589 5588 5587 5585 5584 5583 5582 5582 5580 5582 5582 5582 5583 5583 5584 5586 5588 5588 5591 5593 5595 5598 5599 5600 5601 5603
5609 5608 5606 5604 5603 5601 5600 5598 5596 5594 5592 5589 5588 5587 5587 5586 5585 5584 5583 5582 5580 5579 5578 5578 5577 5577 5577 5578 5577 5577 5576 5577 5578 5579 5580 5584 5585 5587 5590 5592 5593 5594 5595
5605 5604 5602 5601 5600 5599 5597 5595 5593 5591 5589 5587 5585 5583 5582 5580 5579 5578 5577 5576 5575 5575 5574 5574 5573 5574 5573 5572 5572 5571 5571 5570 5571 5572 5573 5575 5578 5580 5583 5584 5586 5586 5587
5602 5601 5599 5598 5597 5596 5594 5592 5590 5588 5586 5584 5582 5580 5578 5576 5574 5572 5571 5571 5571 5571 5571 5570 5569 5568 5568 5567 5565 5565 5565 5565 5566 5568 5567 5568 5571 5572 5574 5577 5578 5579 5580
5600 5598 5597 5596 5594 5593 5591 5589 5587 5585 5583 5581 5579 5576 5574 5572 5570 5568 5566 5565 5565 5566 5566 5566 5564 5564 5563 5562 5561 5560 5560 5560 5560 5561 5562 5561 5564 5565 5568 5570 5571 5572 5573